STARLINK-2532 (48308 NORAD) Tracking and Keplerian Element Data

This shows tracking and keplerian element data for the satellite.

Feedback or suggestion? Click here.




ElementValue
Catalog48308
NameSTARLINK-2532
Epoch Orbit196
Epoch Day173.83334491
Epoch Year2021
RAAN258.7214
Inclination53.0512
Eccentricity0.0001111
Argument of Perigee90.2253
Mean Anonmoly240.0721
Mean Motion15.41369229
Decay Rate-0.01085466
L11 48308U 21036AJ 21173.83334491 -.01085466 00000-0 -27902-1 0 9997
L22 48308 53.0512 258.7214 0001111 90.2253 240.0721 15.41369229 1969

Live tracking and technical data element details for STARLINK-2532 (NORAD 48308). STARLINK-2532 can be tracked NOW for your location showing map with azimuth and elevation plus other details from your city location.

Track the satellite on the map from your city or location and see movement details for azimuth, elevation, latitude, longitude, range, height, and movement on the map or in text.







IsCatalogInMostPopularTable: catalog: 48308, numindb: 24
Update: records affected: 1



GetName: 48308 STARLINK-2532

Hit Count: updated at: Thu, 24 Jun 2021 04:10:36 GMT